Find Jiaotong-6

NORAD ID: 57626 Int'l Des: 2023-121 Owner: HEAD Country: CN operational
LEOCIRCULAR

Live-Position

3D-Globus wird geladen...

Über Jiaotong-6

Beschreibung wird geladen...

Nächste Überflüge

Passes for default location (London). Set your location on the main map for personalized predictions.

Höhenverlauf

Loading altitude history...

Zweizeiliger Elementsatz

1 57626U 23121A 26106.86102671 .00000376 00000-0 10921-3 0 9993
2 57626 45.0016 253.2494 0006721 313.7118 46.3182 14.60584563142613
Epoch: 16. Apr. 2026 • Age: 16 hours

Aktueller Status

Höhe 696.0 km
Geschwindigkeit 7.51 km/s
Subsatellitenpunkt -12.13°S, 51.67°E
Startdatum 14. Aug. 2023
Alter 2.6 years
Typ other

Technische Details

Klassifizierung Payload
Masse 40.00 kg
Trockenmasse 40.00 kg
Gesamtmasse 40.00 kg
Länge 0.50 m
Durchmesser 0.20 m
Spannweite 2.00 m
Form Box + 2 Pan
Hersteller IMICAS
Bus-Typ WN100
Phasenstatus In Orbit
Besitzer/Staat HEAD/CN

Most Searched